Location: Newark
(49.5647°N, 8.2922°E)
Time: 06:59:22
(UTC+00:00)

Transit 2A - Pass Details

Date: 22 February 2020
Orbit: 597 x 962 km, 66.7° (Epoch: 08 April)

Event Time Altitude Azimuth Distance (km) Brightness Sun altitude
Rises 12:13:24 0° 191° (SSW) 2,829 10.2 29.7°
Reaches altitude 10° 12:15:45 10° 183° (S) 1,926 9.7 29.7°
Maximum altitude 12:19:41 37° 116° (ESE) 948 7.0 29.5°
Drops below altitude 10° 12:23:45 10° 50° (NE) 1,989 7.8 29.4°
Sets 12:26:11 0° 42° (NE) 2,936 8.6 29.3°
